Search for airport 
image banner adimage banner adimage banner ad
image banner ad

6PA4 - Scandia Air Park

Located in Russell, United States

ICAO - 6PA4, IATA -

Data provided by Airmate  

General information

Coordinates: N41°55'50" W79°2'3"
Elevation is 2050 feet MSL.
Magnetic variation is -09° East
View others Airports in Pennsylvania

Operational data

Special qualification required
Current time UTC:
Current local time:
Weather at : KJHW - Chautauqua County/Jamestown ( 31 km )
METAR: KJHW 071320Z AUTO 05009KT 10SM -RA FEW009 BKN044 OVC055 04/02 A2991 RMK AO2 RAB14 P0000
TAF: KJHW 071120Z 0712/0812 VRB05KT P6SM -SHRA SCT008 OVC015 FM071600 03005KT 3SM RA BR OVC007 FM071900 34008KT 6SM -SHRA BR OVC007 FM072200 33006KT P6SM BKN015 FM080300 VRB03KT 3SM BR SCT008 FM080700 VRB03KT 5SM BR VCSH BKN005
View NOTAMs / SUP AIP / TFR affecting this airport [VIEW]
Communications frequencies: [VIEW]

Runways:

RWY identifierQFULength (ft)Width (ft)SurfaceLDA (ft)
172000100GRASS
352000100GRASS

Airport contact information

Address: Russell United States

Satellite view of 6PA4